Location: ??????????
(41.2581°N, 22.8006°E)
Time: 10:31:31
(UTC+00:00)

IRAS Rocket - Pass Details

Date: 13 December 2025
Orbit: 846 x 875 km, 100.1° (Epoch: 21 January)

Event Time Altitude Azimuth Distance (km) Brightness Sun altitude
Rises 17:09:20 0° 163° (SSE) 3,402 7.3 -23.4°
Reaches altitude 10° 17:11:41 10° 164° (SSE) 2,467 6.6 -23.9°
Maximum altitude 17:17:10 88° 252° (WSW) 853 4.1 -24.9°
Drops below altitude 10° 17:22:40 10° 344° (NNW) 2,476 6.7 -25.9°
Sets 17:25:02 0° 345° (NNW) 3,416 7.4 -26.4°
